SL-16 DEB

Satellite information

Favourite Embed

Satellite Type and Status

DEBRISIN ORBIT

Key statistics

Satellite SL-16 DEB at a glance.

Uptime

12042

Days in orbit

Revolutions

≈ 14.0

Per day

Orbit

LEO

Low Earth Orbit

Inclination

70.7

Latest

Satellite identification and parameters

Extended collection of information and parameters for SL-16 DEB.

Object identification

Identified? True

Debris? True

Object name: SL-16 DEB

International designator: 1992-093KH

Object number (NORAD): 39717

Object ID (CCSDS): 39717

Country: COMMONWEALTH OF INDEPENDENT STATES (CIS)

Current information (Y/N): Y

RCS size: SMALL

Orbital parameters

Period: 102.633 minutes

Inclination: 70.6867 deg

SMA: 7261.355 km

Apoapsis: 956.077 km

Periapsis: 810.363 km

RAAN: 166.6224 deg

Eccentricy: 0.01003356

Argument of periapsis: 217.2597 deg

Mean anomaly: 142.1529 deg

Mean motion: 14.0306011 rev/day

Mean motion (dot): 0.000011 rev/day2

B* drag term: 0.00070699105 1/REarth

Two-line elements (TLE)

Creation date: Dec. 11, 2025, 3:54 a.m.

Reference frame: TEME

Reference center: EARTH

Epoch: Dec. 10, 2025, 6:49 p.m. UTC

TLE line 0: 0 SL-16 DEB

TLE line 1: 1 39717U 92093KH 25344.78428337 .00001100 00000-0 70699-3 0 9996

TLE line 2: 2 39717 70.6867 166.6224 0100336 217.2597 142.1529 14.03060110596039

Live tracking on map

Real-time ground track for satellite SL-16 DEB.

In-orbit conjunctions

A list of the most updated potential collisions computed for object SL-16 DEB.

Target Orbit TCA Probability of collision Miss distance Type
DELTA 1 DEB SSO 2025-05-21 22:38:19 0.0001102051 75.0 (m) DEBRIS
CZ-6A DEB LEO 2025-01-30 22:22:29 0.0001656578 720.0 (m) DEBRIS
DELTA 1 DEB SSO 2024-08-14 13:27:06 0.000308057 75.0 (m) DEBRIS

Associated space launch

Second generation ELING satellite

SL-16 DEB was lifted into orbit during the mission ‘Zenit-2 | Tselina-2 12’, on board a Zenit-2 space rocket.

The launch took place on Dec. 25, 1992, 5:56 a.m. from 45/1.

For more information about the launch, click the button.

Launch to space Zenit-2 | Tselina-2 12
Zenit-2 | Tselina-2 12

Agency: N/A

Status: Launch Successful

Launch date: Dec. 25, 1992, 5:56 a.m. UTC

Rocket: Zenit-2

Launch pad: 45/1

Location: Baikonur Cosmodrome, Republic of Kazakhstan

...

Latest news about this satellite

There are no fresh news available about this satellite. Check back as we update our databases every day.


Newsletter sign-up

Weekly statistics, charts and insights to help you stay on top of the space industry.